2016-03-31 00:01:03 r, 18.27m,0000000005Hz,0000105489c,0000000.229s, 019.9C,00002195
2016-03-31 00:11:03 r, 18.27m,0000000004Hz,0000105809c,0000000.230s, 019.9C,00002195
2016-03-31 00:21:04 r, 18.31m,0000000004Hz,0000109687c,0000000.238s, 019.9C,00002195
2016-03-31 00:31:06 r, 18.29m,0000000004Hz,0000108497c,0000000.235s, 019.6C,00002195
2016-03-31 00:41:03 r, 18.28m,0000000004Hz,0000106599c,0000000.231s, 019.6C,00002195
2016-03-31 00:51:04 r, 18.31m,0000000004Hz,0000110272c,0000000.239s, 019.6C,00002195
2016-03-31 01:01:04 r, 18.32m,0000000004Hz,0000111387c,0000000.242s, 019.3C,00002195
2016-03-31 01:11:03 r, 18.33m,0000000005Hz,0000112252c,0000000.244s, 019.3C,00002195
2016-03-31 01:21:06 r, 18.34m,0000000004Hz,0000113425c,0000000.246s, 019.3C,00002195
2016-03-31 01:31:04 r, 18.36m,0000000004Hz,0000114222c,0000000.248s, 019.0C,00002195
2016-03-31 01:41:03 r, 18.36m,0000000004Hz,0000114239c,0000000.248s, 019.0C,00002195
2016-03-31 01:51:06 r, 18.34m,0000000004Hz,0000113522c,0000000.246s, 018.6C,00002195
2016-03-31 02:01:04 r, 18.36m,0000000004Hz,0000114944c,0000000.249s, 018.6C,00002195
2016-03-31 02:11:03 r, 18.36m,0000000004Hz,0000114192c,0000000.248s, 018.6C,00002195
2016-03-31 02:21:04 r, 18.34m,0000000004Hz,0000113330c,0000000.246s, 018.3C,00002195
2016-03-31 02:31:06 r, 18.33m,0000000004Hz,0000112305c,0000000.244s, 018.3C,00002195
2016-03-31 02:41:04 r, 18.25m,0000000005Hz,0000103601c,0000000.225s, 018.3C,00002195
2016-03-31 02:51:03 r, 17.66m,0000000008Hz,0000060078c,0000000.130s, 018.3C,00002195
2016-03-31 03:01:06 r, 18.13m,0000000005Hz,0000093119c,0000000.202s, 018.3C,00002195
2016-03-31 03:11:03 r, 18.30m,0000000004Hz,0000109361c,0000000.237s, 018.3C,00002195
2016-03-31 03:21:03 r, 18.31m,0000000004Hz,0000110188c,0000000.239s, 018.3C,00002195
2016-03-31 03:31:05 r, 18.32m,0000000005Hz,0000111298c,0000000.242s, 018.3C,00002195
2016-03-31 03:41:03 r, 18.32m,0000000005Hz,0000111395c,0000000.242s, 018.3C,00002195
2016-03-31 03:51:06 r, 18.33m,0000000005Hz,0000112220c,0000000.244s, 018.3C,00002195
2016-03-31 04:01:04 r, 18.32m,0000000004Hz,0000111374c,0000000.242s, 018.0C,00002195
2016-03-31 04:11:03 r, 18.31m,0000000004Hz,0000110480c,0000000.240s, 018.0C,00002195
2016-03-31 04:21:04 r, 18.31m,0000000004Hz,0000109740c,0000000.238s, 018.0C,00002195
2016-03-31 04:31:04 r, 18.30m,0000000005Hz,0000109465c,0000000.238s, 018.0C,00002195
2016-03-31 04:41:03 r, 18.21m,0000000005Hz,0000100811c,0000000.219s, 017.7C,00002195
2016-03-31 04:51:03 r, 18.11m,0000000005Hz,0000091390c,0000000.198s, 017.7C,00002195
2016-03-31 05:01:04 r, 18.20m,0000000005Hz,0000098845c,0000000.215s, 017.4C,00002195
2016-03-31 05:11:03 r, 18.30m,0000000004Hz,0000108129c,0000000.235s, 017.4C,00002195
2016-03-31 05:21:03 r, 18.26m,0000000004Hz,0000104652c,0000000.227s, 017.0C,00002195
2016-03-31 05:31:03 r, 17.86m,0000000007Hz,0000072848c,0000000.158s, 017.0C,00002195
2016-03-31 05:41:03 r, 18.17m,0000000004Hz,0000095939c,0000000.208s, 017.0C,00002195
2016-03-31 05:51:03 r, 18.12m,0000000005Hz,0000091179c,0000000.198s, 017.0C,00002195
2016-03-31 06:01:03 r, 17.69m,0000000007Hz,0000062332c,0000000.135s, 017.0C,00002195
2016-03-31 06:11:03 r, 16.93m,0000000014Hz,0000030856c,0000000.067s, 017.0C,00002195
2016-03-31 06:21:03 r, 15.62m,0000000049Hz,0000009216c,0000000.020s, 017.4C,00002195
2016-03-31 06:31:05 r, 13.66m,0000000305Hz,0000000000c,0000000.000s, 017.0C,00002195
2016-03-31 06:41:03 r, 11.71m,0000001835Hz,0000000000c,0000000.000s, 017.4C,00002195
2016-03-31 06:51:04 r, 09.78m,0000010997Hz,0000000000c,0000000.000s, 017.4C,00002195
2016-03-31 07:01:06 r, 08.30m,0000042661Hz,0000000000c,0000000.000s, 017.4C,00002195
2016-03-31 07:11:03 r, 07.08m,0000131650Hz,0000000000c,0000000.000s, 017.4C,00002195
2016-03-31 07:21:03 r, 06.23m,0000287907Hz,0000000000c,0000000.000s, 017.4C,00002195
2016-03-31 07:31:06 r, 00.00m,0000492265Hz,0000000000c,0000000.000s, 017.7C,00002195
2016-03-31 07:41:03 r, 00.00m,0000562704Hz,0000000000c,0000000.000s, 017.7C,00002195
2016-03-31 07:51:03 r, 00.00m,0000562668Hz,0000000000c,0000000.000s, 017.7C,00002195
2016-03-31 08:01:03 r, 00.00m,0000562806Hz,0000000000c,0000000.000s, 018.0C,00002195
2016-03-31 08:11:05 r, 00.00m,0000562768Hz,0000000000c,0000000.000s, 018.3C,00002195
2016-03-31 08:21:03 r, 00.00m,0000562847Hz,0000000000c,0000000.000s, 019.0C,00002195
2016-03-31 08:31:04 r, 00.00m,0000562866Hz,0000000000c,0000000.000s, 019.3C,00002195
2016-03-31 08:41:06 r, 00.00m,0000562955Hz,0000000000c,0000000.000s, 019.9C,00002195
2016-03-31 08:51:03 r, 00.00m,0000563161Hz,0000000000c,0000000.000s, 020.3C,00002195
2016-03-31 09:01:04 r, 00.00m,0000563084Hz,0000000000c,0000000.000s, 020.3C,00002195
2016-03-31 09:11:06 r, 00.00m,0000563025Hz,0000000000c,0000000.000s, 020.6C,00002195
2016-03-31 09:21:03 r, 00.00m,0000563076Hz,0000000000c,0000000.000s, 020.6C,00002195
2016-03-31 09:31:06 r, 00.00m,0000563217Hz,0000000000c,0000000.000s, 020.6C,00002195
2016-03-31 09:41:04 r, 00.00m,0000563247Hz,0000000000c,0000000.000s, 021.2C,00002195
2016-03-31 09:51:04 r, 00.00m,0000563495Hz,0000000000c,0000000.000s, 022.8C,00002195
2016-03-31 10:01:03 r, 00.00m,0000563704Hz,0000000000c,0000000.000s, 024.8C,00002195
2016-03-31 10:11:05 r, 00.00m,0000563861Hz,0000000000c,0000000.000s, 026.1C,00002195
2016-03-31 10:21:03 r, 00.00m,0000563999Hz,0000000000c,0000000.000s, 027.0C,00002195
2016-03-31 10:31:04 r, 00.00m,0000564128Hz,0000000000c,0000000.000s, 027.7C,00002195
2016-03-31 10:41:03 r, 00.00m,0000564223Hz,0000000000c,0000000.000s, 028.3C,00002195
2016-03-31 10:51:03 r, 00.00m,0000564226Hz,0000000000c,0000000.000s, 029.0C,00002195
2016-03-31 11:01:04 r, 00.00m,0000564374Hz,0000000000c,0000000.000s, 029.9C,00002195
2016-03-31 11:11:06 r, 00.00m,0000564467Hz,0000000000c,0000000.000s, 030.6C,00002195
2016-03-31 11:21:03 r, 00.00m,0000564446Hz,0000000000c,0000000.000s, 031.2C,00002195
2016-03-31 11:31:06 r, 00.00m,0000564534Hz,0000000000c,0000000.000s, 031.9C,00002195
2016-03-31 11:41:04 r, 00.00m,0000564631Hz,0000000000c,0000000.000s, 032.2C,00002195
2016-03-31 11:51:03 r, 00.00m,0000564702Hz,0000000000c,0000000.000s, 032.8C,00002195
2016-03-31 12:01:03 r, 00.00m,0000564807Hz,0000000000c,0000000.000s, 032.8C,00002195
2016-03-31 12:11:03 r, 00.00m,0000564639Hz,0000000000c,0000000.000s, 032.8C,00002195
2016-03-31 12:21:06 r, 00.00m,0000564568Hz,0000000000c,0000000.000s, 031.5C,00002195
2016-03-31 12:31:03 r, 00.00m,0000564445Hz,0000000000c,0000000.000s, 030.9C,00002195
2016-03-31 12:41:05 r, 00.00m,0000564455Hz,0000000000c,0000000.000s, 030.6C,00002195
2016-03-31 12:51:03 r, 00.00m,0000564318Hz,0000000000c,0000000.000s, 029.9C,00002195
2016-03-31 13:01:05 r, 00.00m,0000564301Hz,0000000000c,0000000.000s, 029.6C,00002195
2016-03-31 13:11:04 r, 00.00m,0000564339Hz,0000000000c,0000000.000s, 029.9C,00002195
2016-03-31 13:21:03 r, 00.00m,0000564330Hz,0000000000c,0000000.000s, 029.6C,00002195
2016-03-31 13:31:03 r, 00.00m,0000564370Hz,0000000000c,0000000.000s, 029.9C,00002195
2016-03-31 13:41:06 r, 00.00m,0000564410Hz,0000000000c,0000000.000s, 030.2C,00002195
2016-03-31 13:51:03 r, 00.00m,0000564253Hz,0000000000c,0000000.000s, 029.3C,00002195
2016-03-31 14:01:03 r, 00.00m,0000564247Hz,0000000000c,0000000.000s, 029.0C,00002195
2016-03-31 14:11:03 r, 00.00m,0000564576Hz,0000000000c,0000000.000s, 030.9C,00002195
2016-03-31 14:21:03 r, 00.00m,0000564274Hz,0000000000c,0000000.000s, 029.6C,00002195
2016-03-31 14:31:06 r, 00.00m,0000563964Hz,0000000000c,0000000.000s, 027.7C,00002195
2016-03-31 14:41:04 r, 00.00m,0000563923Hz,0000000000c,0000000.000s, 026.4C,00002195
2016-03-31 14:51:03 r, 00.00m,0000563926Hz,0000000000c,0000000.000s, 026.4C,00002195
2016-03-31 15:01:03 r, 00.00m,0000563841Hz,0000000000c,0000000.000s, 026.4C,00002195
2016-03-31 15:11:03 r, 00.00m,0000563760Hz,0000000000c,0000000.000s, 025.1C,00002195
2016-03-31 15:21:03 r, 00.00m,0000563629Hz,0000000000c,0000000.000s, 024.8C,00002195
2016-03-31 15:31:03 r, 00.00m,0000563613Hz,0000000000c,0000000.000s, 024.4C,00002195
2016-03-31 15:41:06 r, 00.00m,0000563758Hz,0000000000c,0000000.000s, 024.8C,00002195
2016-03-31 15:51:03 r, 00.00m,0000563759Hz,0000000000c,0000000.000s, 025.4C,00002195
2016-03-31 16:01:06 r, 00.00m,0000563778Hz,0000000000c,0000000.000s, 025.7C,00002195
2016-03-31 16:11:04 r, 00.00m,0000563759Hz,0000000000c,0000000.000s, 025.1C,00002195
2016-03-31 16:21:03 r, 00.00m,0000563599Hz,0000000000c,0000000.000s, 024.4C,00002195
2016-03-31 16:31:06 r, 00.00m,0000563637Hz,0000000000c,0000000.000s, 024.4C,00002195
2016-03-31 16:41:04 r, 00.00m,0000563529Hz,0000000000c,0000000.000s, 023.8C,00002195
2016-03-31 16:51:03 r, 00.00m,0000563496Hz,0000000000c,0000000.000s, 023.5C,00002195
2016-03-31 17:01:05 r, 00.00m,0000563506Hz,0000000000c,0000000.000s, 023.2C,00002195
2016-03-31 17:11:04 r, 00.00m,0000563355Hz,0000000000c,0000000.000s, 022.8C,00002195
2016-03-31 17:21:03 r, 00.00m,0000563672Hz,0000000000c,0000000.000s, 024.4C,00002195
2016-03-31 17:31:03 r, 00.00m,0000563513Hz,0000000000c,0000000.000s, 023.8C,00002195
2016-03-31 17:41:04 r, 00.00m,0000563424Hz,0000000000c,0000000.000s, 023.5C,00002195
2016-03-31 17:51:05 r, 00.00m,0000563464Hz,0000000000c,0000000.000s, 023.5C,00002195
2016-03-31 18:01:03 r, 00.00m,0000563374Hz,0000000000c,0000000.000s, 023.2C,00002195
2016-03-31 18:11:06 r, 00.00m,0000563445Hz,0000000000c,0000000.000s, 023.2C,00002195
2016-03-31 18:21:04 r, 00.00m,0000563314Hz,0000000000c,0000000.000s, 022.2C,00002195
2016-03-31 18:31:06 r, 00.00m,0000563244Hz,0000000000c,0000000.000s, 021.9C,00002195
2016-03-31 18:41:04 r, 00.00m,0000563188Hz,0000000000c,0000000.000s, 021.2C,00002195
2016-03-31 18:51:03 r, 00.00m,0000563176Hz,0000000000c,0000000.000s, 021.5C,00002195
2016-03-31 19:01:06 r, 00.00m,0000563237Hz,0000000000c,0000000.000s, 021.9C,00002195
2016-03-31 19:11:04 r, 00.00m,0000563067Hz,0000000000c,0000000.000s, 021.2C,00002195
2016-03-31 19:21:03 r, 00.00m,0000520091Hz,0000000000c,0000000.000s, 020.6C,00002195
2016-03-31 19:31:05 r, 05.89m,0000390127Hz,0000000000c,0000000.000s, 020.6C,00002195
2016-03-31 19:41:03 r, 06.38m,0000248954Hz,0000000000c,0000000.000s, 019.9C,00002195
2016-03-31 19:51:03 r, 07.01m,0000141086Hz,0000000000c,0000000.000s, 019.6C,00002195
2016-03-31 20:01:05 r, 07.90m,0000061923Hz,0000000000c,0000000.000s, 019.0C,00002195
2016-03-31 20:11:04 r, 09.23m,0000018132Hz,0000000000c,0000000.000s, 018.6C,00002195
2016-03-31 20:21:03 r, 10.83m,0000004139Hz,0000000000c,0000000.000s, 018.3C,00002195
2016-03-31 20:31:06 r, 13.02m,0000000553Hz,0000000000c,0000000.000s, 018.3C,00002195
2016-03-31 20:41:03 r, 15.11m,0000000081Hz,0000005732c,0000000.012s, 018.0C,00002195
2016-03-31 20:51:03 r, 16.72m,0000000018Hz,0000025271c,0000000.055s, 018.0C,00002195
2016-03-31 21:01:06 r, 17.27m,0000000011Hz,0000042317c,0000000.092s, 017.7C,00002195
2016-03-31 21:11:04 r, 17.62m,0000000008Hz,0000058274c,0000000.126s, 017.7C,00002195
2016-03-31 21:21:04 r, 18.02m,0000000006Hz,0000084365c,0000000.183s, 017.4C,00002195
2016-03-31 21:31:05 r, 18.18m,0000000005Hz,0000096887c,0000000.210s, 017.0C,00002195
2016-03-31 21:41:04 r, 15.83m,0000000041Hz,0000011184c,0000000.024s, 016.7C,00002195
2016-03-31 21:51:03 r, 15.78m,0000000042Hz,0000010726c,0000000.023s, 016.4C,00002195
2016-03-31 22:01:03 r, 15.46m,0000000057Hz,0000007971c,0000000.017s, 016.4C,00002195
2016-03-31 22:11:04 r, 15.74m,0000000044Hz,0000010335c,0000000.022s, 016.1C,00002195
2016-03-31 22:21:03 r, 16.57m,0000000020Hz,0000022114c,0000000.048s, 016.1C,00002195
2016-03-31 22:31:05 r, 17.36m,0000000010Hz,0000045722c,0000000.099s, 015.7C,00002195
2016-03-31 22:41:04 r, 17.19m,0000000012Hz,0000038970c,0000000.085s, 015.4C,00002195
2016-03-31 22:51:03 r, 18.11m,0000000005Hz,0000090298c,0000000.196s, 015.1C,00002195
2016-03-31 23:01:03 r, 18.23m,0000000004Hz,0000101872c,0000000.221s, 014.8C,00002195
2016-03-31 23:11:03 r, 18.19m,0000000005Hz,0000098009c,0000000.213s, 014.5C,00002195
2016-03-31 23:21:03 r, 18.20m,0000000004Hz,0000099658c,0000000.216s, 014.1C,00002195
2016-03-31 23:31:06 r, 18.08m,0000000005Hz,0000089366c,0000000.194s, 013.8C,00002195
2016-03-31 23:41:04 r, 18.24m,0000000004Hz,0000102739c,0000000.223s, 013.8C,00002195
2016-03-31 23:51:03 r, 18.23m,0000000004Hz,0000101522c,0000000.220s, 013.5C,00002195
